,,Stat6,,Stat2,,Stat8,,Stat9,,Stat10,,Wind1,,Wind1,
time,status,PA1M_AVG,status,PR1M_SUM,status,RH1M_AVG,status,SR1M_AVG,status,TA1M_AVG,status,W1dAve1m,status,W1sAve1m,
2007-03-06, 00:00:00,VALID,918.419,VALID,0,VALID,100,VALID,0,VALID,20.3308,VALID,319,VALID,0.459821,
2007-03-06, 00:01:00,VALID,918.421,VALID,0,VALID,100,VALID,-0.0509425,VALID,20.3245,VALID,318,VALID,0.0932049,
2007-03-06, 00:02:00,VALID,918.418,VALID,0,VALID,100,VALID,0,VALID,20.3213,VALID,318,VALID,0.0366319,
2007-03-06, 00:03:00,VALID,918.411,VALID,0,VALID,100,VALID,0,VALID,20.3081,VALID,318,VALID,0.341844,
2007-03-06, 00:04:00,VALID,918.395,VALID,0,VALID,100,VALID,-0.0169808,VALID,20.318,VALID,328,VALID,0.285442,
2007-03-06, 00:05:00,VALID,918.388,VALID,0,VALID,100,VALID,-0.0169808,VALID,20.311,VALID,311,VALID,0.582227,
2007-03-06, 00:06:00,VALID,918.377,VALID,0,VALID,100,VALID,0,VALID,20.3178,VALID,339,VALID,0.811967,
2007-03-06, 00:07:00,VALID,918.36,VALID,0,VALID,100,VALID,0,VALID,20.3173,VALID,317,VALID,0.467391,
2007-03-06, 00:08:00,VALID,918.353,VALID,0,VALID,100,VALID,0.0169808,VALID,20.3005,VALID,317,VALID,0.110305,
2007-03-06, 00:09:00,VALID,918.331,VALID,0,VALID,100,VALID,0,VALID,20.2981,VALID,317,VALID,0.124256,
2007-03-06, 00:10:00,VALID,918.312,VALID,0,VALID,100,VALID,0,VALID,20.2913,VALID,319,VALID,0.213423,
2007-03-06, 00:11:00,VALID,918.283,VALID,0,VALID,100,VALID,0.0169808,VALID,20.2883,VALID,328,VALID,0.744284,
2007-03-06, 00:12:00,VALID,918.275,VALID,0,VALID,100,VALID,0.0169808,VALID,20.2683,VALID,323,VALID,0.435404,
2007-03-06, 00:13:00,VALID,918.249,VALID,0,VALID,100,VALID,0,VALID,20.2327,VALID,331,VALID,0.260547,
2007-03-06, 00:14:00,VALID,918.233,VALID,0,VALID,100,VALID,0,VALID,20.214,VALID,331,VALID,0.36109,
2007-03-06, 00:15:00,VALID,918.213,VALID,0,VALID,100,VALID,0,VALID,20.1777,VALID,331,VALID,0.315163,
2007-03-06, 00:16:00,VALID,918.178,VALID,0,VALID,100,VALID,0.0169808,VALID,20.1615,VALID,324,VALID,0.307355,
2007-03-06, 00:17:00,VALID,918.161,VALID,0,VALID,100,VALID,-0.0169808,VALID,20.1386,VALID,322,VALID,0.247266,
2007-03-06, 00:18:00,VALID,918.152,VALID,0,VALID,100,VALID,-0.0169808,VALID,20.1258,VALID,322,VALID,0.276042,
2007-03-06, 00:19:00,VALID,918.147,VALID,0,VALID,100,VALID,-0.0339617,VALID,20.0964,VALID,320,VALID,0.485777,
2007-03-06, 00:20:00,VALID,918.16,VALID,0,VALID,100,VALID,0,VALID,20.0936,VALID,317,VALID,0.249809,
2007-03-06, 00:21:00,VALID,918.155,VALID,0,VALID,100,VALID,0,VALID,20.0774,VALID,317,VALID,0.00111607,
2007-03-06, 00:22:00,VALID,918.176,VALID,0,VALID,100,VALID,-0.0169808,VALID,20.0807,VALID,317,VALID,0.00111607,
2007-03-06, 00:23:00,VALID,918.181,VALID,0,VALID,100,VALID,0,VALID,20.0839,VALID,317,VALID,0.00279018,
2007-03-06, 00:24:00,VALID,918.209,VALID,0,VALID,100,VALID,0,VALID,20.0569,VALID,317,VALID,0,
2007-03-06, 00:25:00,VALID,918.219,VALID,0,VALID,100,VALID,0,VALID,20.042,VALID,317,VALID,0,
2007-03-06, 00:26:00,VALID,918.215,VALID,0,VALID,100,VALID,0,VALID,20.0188,VALID,317,VALID,0,
2007-03-06, 00:27:00,VALID,918.213,VALID,0,VALID,100,VALID,0.0169808,VALID,20.0128,VALID,317,VALID,0,
2007-03-06, 00:28:00,VALID,918.21,VALID,0,VALID,100,VALID,0,VALID,19.9993,VALID,317,VALID,0,
2007-03-06, 00:29:00,VALID,918.192,VALID,0,VALID,100,VALID,-0.0509425,VALID,19.996,VALID,317,VALID,0,
2007-03-06, 00:30:00,VALID,918.184,VALID,0,VALID,100,VALID,0.0169808,VALID,19.9958,VALID,317,VALID,0,
2007-03-06, 00:31:00,VALID,918.172,VALID,0,VALID,100,VALID,0.0339617,VALID,19.9796,VALID,317,VALID,0,
2007-03-06, 00:32:00,VALID,918.145,VALID,0,VALID,100,VALID,0,VALID,19.9761,VALID,317,VALID,0,
2007-03-06, 00:33:00,VALID,918.106,VALID,0,VALID,100,VALID,0.0169808,VALID,19.9698,VALID,317,VALID,0,
2007-03-06, 00:34:00,VALID,918.074,VALID,0,VALID,100,VALID,0.0169808,VALID,19.9671,VALID,317,VALID,0,
2007-03-06, 00:35:00,VALID,918.055,VALID,0,VALID,100,VALID,0.0169808,VALID,19.9277,VALID,317,VALID,0,
2007-03-06, 00:36:00,VALID,918.026,VALID,0,VALID,100,VALID,0,VALID,19.8957,VALID,317,VALID,0,
2007-03-06, 00:37:00,VALID,918,VALID,0,VALID,100,VALID,0.0169808,VALID,19.8658,VALID,317,VALID,0,
2007-03-06, 00:38:00,VALID,918.001,VALID,0,VALID,100,VALID,0,VALID,19.85,VALID,317,VALID,0,
2007-03-06, 00:39:00,VALID,917.996,VALID,0,VALID,100,VALID,0.0169808,VALID,19.8431,VALID,317,VALID,0,
2007-03-06, 00:40:00,VALID,917.987,VALID,0,VALID,100,VALID,-0.0169808,VALID,19.8373,VALID,317,VALID,0,
2007-03-06, 00:41:00,VALID,917.968,VALID,0,VALID,100,VALID,0.0169808,VALID,19.7949,VALID,317,VALID,0,
2007-03-06, 00:42:00,VALID,917.962,VALID,0,VALID,100,VALID,0,VALID,19.7497,VALID,317,VALID,0,
2007-03-06, 00:43:00,VALID,917.923,VALID,0,VALID,100,VALID,-0.0169808,VALID,19.714,VALID,317,VALID,0.090843,
2007-03-06, 00:44:00,VALID,917.9,VALID,0,VALID,100,VALID,0,VALID,19.6484,VALID,313,VALID,0.403088,
2007-03-06, 00:45:00,VALID,917.851,VALID,0,VALID,100,VALID,0,VALID,19.6135,VALID,169,VALID,0.606597,
2007-03-06, 00:46:00,VALID,917.829,VALID,0,VALID,100,VALID,-0.0169808,VALID,19.5972,VALID,169,VALID,0.408918,
2007-03-06, 00:47:00,VALID,917.821,VALID,0,VALID,100,VALID,0.0169808,VALID,19.5511,VALID,169,VALID,0.134718,
2007-03-06, 00:48:00,VALID,917.838,VALID,0,VALID,100,VALID,-0.0339617,VALID,19.5099,VALID,169,VALID,0.124818,
2007-03-06, 00:49:00,VALID,917.847,VALID,0,VALID,100,VALID,-0.0339617,VALID,19.4837,VALID,169,VALID,0.0580659,
2007-03-06, 00:50:00,VALID,917.853,VALID,0,VALID,100,VALID,0.0169808,VALID,19.464,VALID,169,VALID,0.0222942,
2007-03-06, 00:51:00,VALID,917.849,VALID,0,VALID,100,VALID,0,VALID,19.48,VALID,169,VALID,0.0189732,
2007-03-06, 00:52:00,VALID,917.857,VALID,0,VALID,100,VALID,0,VALID,19.4183,VALID,169,VALID,0.0388765,
2007-03-06, 00:53:00,VALID,917.829,VALID,0,VALID,100,VALID,0,VALID,19.3407,VALID,169,VALID,0,
2007-03-06, 00:54:00,VALID,917.811,VALID,0,VALID,100,VALID,0,VALID,19.3572,VALID,169,VALID,0.0558594,
2007-03-06, 00:55:00,VALID,917.794,VALID,0,VALID,100,VALID,0,VALID,19.3697,VALID,169,VALID,0,
2007-03-06, 00:56:00,VALID,917.768,VALID,0,VALID,100,VALID,0,VALID,19.3337,VALID,169,VALID,0,
2007-03-06, 00:57:00,VALID,917.741,VALID,0,VALID,100,VALID,0.0169808,VALID,19.3629,VALID,169,VALID,0.0597222,
2007-03-06, 00:58:00,VALID,917.715,VALID,0,VALID,100,VALID,0,VALID,19.3989,VALID,169,VALID,0,
2007-03-06, 00:59:00,VALID,917.682,VALID,0,VALID,100,VALID,0,VALID,19.3889,VALID,169,VALID,0.000190549,
2007-03-06, 01:00:00,VALID,917.647,VALID,0,VALID,100,VALID,0,VALID,19.3532,VALID,143,VALID,0.395354,
2007-03-06, 01:01:00,VALID,917.635,VALID,0,VALID,100,VALID,0,VALID,19.3926,VALID,72,VALID,0.332031,
2007-03-06, 01:02:00,VALID,917.597,VALID,0,VALID,100,VALID,0,VALID,19.3829,VALID,72,VALID,0.0101562,
2007-03-06, 01:03:00,VALID,917.572,VALID,0,VALID,100,VALID,0,VALID,19.3727,VALID,72,VALID,0.0385417,
2007-03-06, 01:04:00,VALID,917.546,VALID,0,VALID,100,VALID,0.0169808,VALID,19.35,VALID,72,VALID,0.0243459,
2007-03-06, 01:05:00,VALID,917.532,VALID,0,VALID,100,VALID,-0.0169808,VALID,19.337,VALID,72,VALID,0.000390625,
2007-03-06, 01:06:00,VALID,917.515,VALID,0,VALID,100,VALID,0.0339617,VALID,19.3105,VALID,72,VALID,0,
2007-03-06, 01:07:00,VALID,917.49,VALID,0,VALID,100,VALID,0,VALID,19.2943,VALID,72,VALID,0.119731,
2007-03-06, 01:08:00,VALID,917.489,VALID,0,VALID,100,VALID,0,VALID,19.2556,VALID,72,VALID,0.192336,
2007-03-06, 01:09:00,VALID,917.463,VALID,0,VALID,100,VALID,0,VALID,19.22,VALID,70,VALID,0.529433,
2007-03-06, 01:10:00,VALID,917.443,VALID,0,VALID,100,VALID,0.0339617,VALID,19.2489,VALID,70,VALID,0.429142,
2007-03-06, 01:11:00,VALID,917.428,VALID,0,VALID,100,VALID,0,VALID,19.2878,VALID,70,VALID,0.450763,
2007-03-06, 01:12:00,VALID,917.404,VALID,0,VALID,100,VALID,0,VALID,19.3242,VALID,51,VALID,0.440625,
2007-03-06, 01:13:00,VALID,917.384,VALID,0,VALID,100,VALID,0,VALID,19.3694,VALID,44,VALID,0.571987,
2007-03-06, 01:14:00,VALID,917.365,VALID,0,VALID,100,VALID,0,VALID,19.4021,VALID,44,VALID,0.294271,
2007-03-06, 01:15:00,VALID,917.343,VALID,0,VALID,100,VALID,0,VALID,19.3946,VALID,44,VALID,0.0143229,
2007-03-06, 01:16:00,VALID,917.318,VALID,0,VALID,100,VALID,0.0169808,VALID,19.4113,VALID,44,VALID,0,
2007-03-06, 01:17:00,VALID,917.287,VALID,0,VALID,100,VALID,0.0169808,VALID,19.4143,VALID,44,VALID,0,
2007-03-06, 01:18:00,VALID,917.244,VALID,0,VALID,100,VALID,0.0169808,VALID,19.4338,VALID,44,VALID,0,
2007-03-06, 01:19:00,VALID,917.234,VALID,0,VALID,100,VALID,0,VALID,19.4271,VALID,44,VALID,0,
2007-03-06, 01:20:00,VALID,917.221,VALID,0,VALID,100,VALID,0.0339617,VALID,19.4143,VALID,44,VALID,0,
2007-03-06, 01:21:00,VALID,917.209,VALID,0,VALID,100,VALID,0.0339617,VALID,19.4405,VALID,44,VALID,0,
2007-03-06, 01:22:00,VALID,917.225,VALID,0,VALID,100,VALID,0.0169808,VALID,19.4173,VALID,44,VALID,0,
2007-03-06, 01:23:00,VALID,917.214,VALID,0,VALID,100,VALID,0,VALID,19.3495,VALID,44,VALID,0,
2007-03-06, 01:24:00,VALID,917.189,VALID,0,VALID,100,VALID,0,VALID,19.314,VALID,44,VALID,0,
2007-03-06, 01:25:00,VALID,917.177,VALID,0,VALID,100,VALID,0.0169808,VALID,19.2586,VALID,44,VALID,0,
2007-03-06, 01:26:00,VALID,917.155,VALID,0,VALID,100,VALID,-0.0169808,VALID,19.2299,VALID,44,VALID,0,
2007-03-06, 01:27:00,VALID,917.13,VALID,0,VALID,100,VALID,0.0339617,VALID,19.2065,VALID,44,VALID,0,
2007-03-06, 01:28:00,VALID,917.115,VALID,0,VALID,100,VALID,-0.0339617,VALID,19.2042,VALID,44,VALID,0,
2007-03-06, 01:29:00,VALID,917.082,VALID,0,VALID,100,VALID,-0.101885,VALID,19.2576,VALID,44,VALID,0,
2007-03-06, 01:30:00,VALID,917.07,VALID,0,VALID,99.9672,VALID,-0.101885,VALID,19.1987,VALID,44,VALID,0.136632,
2007-03-06, 01:31:00,VALID,917.042,VALID,0,VALID,99.6328,VALID,-0.0849042,VALID,19.0428,VALID,42,VALID,0.179315,
2007-03-06, 01:32:00,VALID,917.031,VALID,0,VALID,99.4331,VALID,-0.118866,VALID,18.9429,VALID,242,VALID,0.856771,
2007-03-06, 01:33:00,VALID,916.974,VALID,0,VALID,100,VALID,-0.0849042,VALID,19.0398,VALID,253,VALID,0.154167,
2007-03-06, 01:34:00,VALID,916.925,VALID,0,VALID,100,VALID,-0.101885,VALID,19.1209,VALID,253,VALID,0,
2007-03-06, 01:35:00,VALID,916.886,VALID,0,VALID,100,VALID,-0.101885,VALID,19.0917,VALID,253,VALID,0,
2007-03-06, 01:36:00,VALID,916.855,VALID,0,VALID,100,VALID,-0.101885,VALID,18.9781,VALID,253,VALID,0.00167411,
2007-03-06, 01:37:00,VALID,916.825,VALID,0,VALID,100,VALID,-0.0849042,VALID,18.916,VALID,270,VALID,0.468023,
2007-03-06, 01:38:00,VALID,916.8,VALID,0,VALID,100,VALID,-0.0679233,VALID,19.0038,VALID,290,VALID,0.657158,
2007-03-06, 01:39:00,VALID,916.782,VALID,0,VALID,100,VALID,-0.101885,VALID,19.0527,VALID,301,VALID,0.750182,
2007-03-06, 01:40:00,VALID,916.795,VALID,0,VALID,100,VALID,-0.101885,VALID,19.0465,VALID,336,VALID,0.648611,
2007-03-06, 01:41:00,VALID,916.803,VALID,0,VALID,100,VALID,-0.0849042,VALID,19.033,VALID,341,VALID,0.450521,
2007-03-06, 01:42:00,VALID,916.81,VALID,0,VALID,100,VALID,-0.101885,VALID,19.0754,VALID,341,VALID,0.467297,
2007-03-06, 01:43:00,VALID,916.805,VALID,0,VALID,100,VALID,-0.101885,VALID,19.0919,VALID,341,VALID,0.367969,
2007-03-06, 01:44:00,VALID,916.812,VALID,0,VALID,100,VALID,-0.0849042,VALID,19.0882,VALID,13,VALID,0.785342,
2007-03-06, 01:45:00,VALID,916.818,VALID,0,VALID,100,VALID,-0.118866,VALID,19.1371,VALID,350,VALID,0.761418,
2007-03-06, 01:46:00,VALID,916.829,VALID,0,VALID,100,VALID,-0.101885,VALID,19.202,VALID,341,VALID,0.611555,
2007-03-06, 01:47:00,VALID,916.833,VALID,0,VALID,100,VALID,-0.101885,VALID,19.2022,VALID,4,VALID,0.618359,
2007-03-06, 01:48:00,VALID,916.839,VALID,0,VALID,100,VALID,-0.101885,VALID,19.2187,VALID,359,VALID,0.572917,
2007-03-06, 01:49:00,VALID,916.852,VALID,0,VALID,100,VALID,-0.101885,VALID,19.2281,VALID,11,VALID,0.177144,
2007-03-06, 01:50:00,VALID,916.884,VALID,0,VALID,100,VALID,-0.0849042,VALID,19.2114,VALID,11,VALID,0.0394531,
2007-03-06, 01:51:00,VALID,916.926,VALID,0,VALID,100,VALID,-0.118866,VALID,19.1822,VALID,11,VALID,0.183594,
2007-03-06, 01:52:00,VALID,916.942,VALID,0,VALID,100,VALID,-0.101885,VALID,19.1635,VALID,11,VALID,0.302998,
2007-03-06, 01:53:00,VALID,916.958,VALID,0,VALID,100,VALID,-0.118866,VALID,19.1336,VALID,15,VALID,0.280878,
2007-03-06, 01:54:00,VALID,916.951,VALID,0,VALID,100,VALID,-0.101885,VALID,19.1308,VALID,17,VALID,0.333079,
2007-03-06, 01:55:00,VALID,916.961,VALID,0,VALID,100,VALID,-0.0849042,VALID,19.1308,VALID,347,VALID,0.646076,
2007-03-06, 01:56:00,VALID,916.963,VALID,0,VALID,100,VALID,-0.0679233,VALID,19.1179,VALID,9,VALID,0.880469,
2007-03-06, 01:57:00,VALID,916.98,VALID,0,VALID,100,VALID,-0.0849042,VALID,19.0754,VALID,4,VALID,0.65968,
2007-03-06, 01:58:00,VALID,917.007,VALID,0,VALID,100,VALID,-0.0339617,VALID,19.0418,VALID,24,VALID,0.922991,
2007-03-06, 01:59:00,VALID,917.021,VALID,0,VALID,100,VALID,0.0169808,VALID,19.0253,VALID,1,VALID,0.867746,
2007-03-06, 02:00:00,VALID,917.06,VALID,0,VALID,100,VALID,0,VALID,18.9924,VALID,2,VALID,0.758523,
2007-03-06, 02:01:00,VALID,917.09,VALID,0,VALID,100,VALID,0,VALID,18.9672,VALID,323,VALID,0.662972,
2007-03-06, 02:02:00,VALID,917.106,VALID,0,VALID,100,VALID,0,VALID,18.9443,VALID,5,VALID,0.303779,
2007-03-06, 02:03:00,VALID,917.119,VALID,0,VALID,100,VALID,0,VALID,18.9545,VALID,6,VALID,0.446039,
2007-03-06, 02:04:00,VALID,917.109,VALID,0,VALID,100,VALID,0,VALID,18.9535,VALID,347,VALID,1.11426,
2007-03-06, 02:05:00,VALID,917.116,VALID,0,VALID,100,VALID,0,VALID,18.9829,VALID,318,VALID,0.724159,
2007-03-06, 02:06:00,VALID,917.096,VALID,0,VALID,100,VALID,-0.0169808,VALID,18.9899,VALID,324,VALID,0.570685,
2007-03-06, 02:07:00,VALID,917.091,VALID,0,VALID,100,VALID,0.0169808,VALID,18.9667,VALID,14,VALID,0.584549,
2007-03-06, 02:08:00,VALID,917.07,VALID,0,VALID,100,VALID,0,VALID,18.941,VALID,32,VALID,0.97061,
2007-03-06, 02:09:00,VALID,917.073,VALID,0,VALID,100,VALID,0.0169808,VALID,18.8891,VALID,25,VALID,1.00127,
2007-03-06, 02:10:00,VALID,917.085,VALID,0,VALID,100,VALID,0,VALID,18.8664,VALID,26,VALID,0.845833,
2007-03-06, 02:11:00,VALID,917.081,VALID,0,VALID,100,VALID,-0.0169808,VALID,18.8636,VALID,26,VALID,0.878005,
2007-03-06, 02:12:00,VALID,917.09,VALID,0,VALID,100,VALID,0,VALID,18.834,VALID,31,VALID,0.978561,
2007-03-06, 02:13:00,VALID,917.099,VALID,0,VALID,100,VALID,0.0339617,VALID,18.8178,VALID,13,VALID,0.650971,
2007-03-06, 02:14:00,VALID,917.099,VALID,0,VALID,100,VALID,-0.0169808,VALID,18.8018,VALID,355,VALID,0.449505,
2007-03-06, 02:15:00,VALID,917.084,VALID,0,VALID,100,VALID,-0.0169808,VALID,18.8015,VALID,355,VALID,0.0136719,
2007-03-06, 02:16:00,VALID,917.098,VALID,0,VALID,100,VALID,0,VALID,18.8444,VALID,355,VALID,0.498285,
2007-03-06, 02:17:00,VALID,917.104,VALID,0,VALID,100,VALID,0,VALID,18.8632,VALID,351,VALID,0.58494,
2007-03-06, 02:18:00,VALID,917.113,VALID,0,VALID,100,VALID,0.0339617,VALID,18.8924,VALID,339,VALID,0.289063,
2007-03-06, 02:19:00,VALID,917.106,VALID,0,VALID,100,VALID,0,VALID,18.8988,VALID,336,VALID,0.341639,
2007-03-06, 02:20:00,VALID,917.108,VALID,0,VALID,100,VALID,0,VALID,18.8078,VALID,336,VALID,0.405849,
2007-03-06, 02:21:00,VALID,917.136,VALID,0,VALID,100,VALID,0,VALID,18.8242,VALID,336,VALID,0.178089,
2007-03-06, 02:22:00,VALID,917.153,VALID,0,VALID,100,VALID,0.0339617,VALID,18.8534,VALID,324,VALID,0.352364,
2007-03-06, 02:23:00,VALID,917.155,VALID,0,VALID,100,VALID,0,VALID,18.8727,VALID,314,VALID,0.360647,
2007-03-06, 02:24:00,VALID,917.155,VALID,0,VALID,100,VALID,0,VALID,18.8921,VALID,314,VALID,0.266406,
2007-03-06, 02:25:00,VALID,917.156,VALID,0,VALID,100,VALID,0,VALID,18.8822,VALID,314,VALID,0.152439,
2007-03-06, 02:26:00,VALID,917.144,VALID,0,VALID,100,VALID,0.0509425,VALID,18.8789,VALID,314,VALID,0.181141,
2007-03-06, 02:27:00,VALID,917.138,VALID,0,VALID,100,VALID,0,VALID,18.8697,VALID,253,VALID,0.551525,
2007-03-06, 02:28:00,VALID,917.12,VALID,0,VALID,100,VALID,-0.0339617,VALID,18.818,VALID,226,VALID,0.577381,
2007-03-06, 02:29:00,VALID,917.103,VALID,0,VALID,100,VALID,-0.0679233,VALID,18.7997,VALID,217,VALID,0.428906,
2007-03-06, 02:30:00,VALID,917.091,VALID,0,VALID,100,VALID,-0.101885,VALID,18.7863,VALID,217,VALID,0.377734,
2007-03-06, 02:31:00,VALID,917.075,VALID,0,VALID,100,VALID,-0.101885,VALID,18.7668,VALID,217,VALID,0.305382,
2007-03-06, 02:32:00,VALID,917.063,VALID,0,VALID,100,VALID,-0.0849042,VALID,18.7506,VALID,217,VALID,0.0753348,
2007-03-06, 02:33:00,VALID,917.074,VALID,0,VALID,100,VALID,-0.101885,VALID,18.761,VALID,217,VALID,0.12173,
2007-03-06, 02:34:00,VALID,917.071,VALID,0,VALID,100,VALID,-0.101885,VALID,18.7613,VALID,217,VALID,0,
2007-03-06, 02:35:00,VALID,917.06,VALID,0,VALID,100,VALID,-0.118866,VALID,18.7538,VALID,217,VALID,0.0710392,
2007-03-06, 02:36:00,VALID,917.049,VALID,0,VALID,100,VALID,-0.101885,VALID,18.7902,VALID,227,VALID,0.328316,
2007-03-06, 02:37:00,VALID,917.029,VALID,0,VALID,100,VALID,-0.101885,VALID,18.803,VALID,279,VALID,0.204241,
2007-03-06, 02:38:00,VALID,917.003,VALID,0,VALID,100,VALID,-0.101885,VALID,18.7967,VALID,279,VALID,0.0419207,
2007-03-06, 02:39:00,VALID,916.987,VALID,0,VALID,100,VALID,-0.101885,VALID,18.7865,VALID,279,VALID,0,
2007-03-06, 02:40:00,VALID,916.965,VALID,0,VALID,100,VALID,-0.101885,VALID,18.7835,VALID,279,VALID,0.0265214,
2007-03-06, 02:41:00,VALID,916.968,VALID,0,VALID,100,VALID,-0.0849042,VALID,18.8192,VALID,254,VALID,0.38457,
2007-03-06, 02:42:00,VALID,916.96,VALID,0,VALID,100,VALID,-0.101885,VALID,18.8516,VALID,239,VALID,0.142624,
2007-03-06, 02:43:00,VALID,916.964,VALID,0,VALID,100,VALID,-0.0509425,VALID,18.8155,VALID,280,VALID,0.294567,
2007-03-06, 02:44:00,VALID,916.957,VALID,0,VALID,100,VALID,0.0169808,VALID,18.7719,VALID,280,VALID,0.0749628,
2007-03-06, 02:45:00,VALID,916.955,VALID,0,VALID,100,VALID,0,VALID,18.7724,VALID,280,VALID,0,
2007-03-06, 02:46:00,VALID,916.948,VALID,0,VALID,100,VALID,0.0169808,VALID,18.7798,VALID,280,VALID,0,
2007-03-06, 02:47:00,VALID,916.929,VALID,0,VALID,100,VALID,-0.0169808,VALID,18.7626,VALID,280,VALID,0.00109012,
2007-03-06, 02:48:00,VALID,916.91,VALID,0,VALID,100,VALID,0.0169808,VALID,18.7918,VALID,280,VALID,0,
2007-03-06, 02:49:00,VALID,916.89,VALID,0,VALID,100,VALID,0.0169808,VALID,18.7754,VALID,266,VALID,0.174609,
2007-03-06, 02:50:00,VALID,916.856,VALID,0,VALID,100,VALID,0.0339617,VALID,18.7399,VALID,236,VALID,0.311166,
2007-03-06, 02:51:00,VALID,916.822,VALID,0,VALID,100,VALID,0.0339617,VALID,18.6785,VALID,235,VALID,0.393576,
2007-03-06, 02:52:00,VALID,916.806,VALID,0,VALID,100,VALID,0.0169808,VALID,18.6459,VALID,235,VALID,0.345385,
2007-03-06, 02:53:00,VALID,916.793,VALID,0,VALID,100,VALID,0.0169808,VALID,18.6067,VALID,235,VALID,0.205273,
2007-03-06, 02:54:00,VALID,916.799,VALID,0,VALID,100,VALID,0.0339617,VALID,18.6292,VALID,235,VALID,0,
2007-03-06, 02:55:00,VALID,916.793,VALID,0,VALID,100,VALID,0,VALID,18.6259,VALID,235,VALID,0.00106534,
2007-03-06, 02:56:00,VALID,916.791,VALID,0,VALID,100,VALID,0.0169808,VALID,18.6002,VALID,235,VALID,0,
2007-03-06, 02:57:00,VALID,916.798,VALID,0,VALID,100,VALID,-0.0169808,VALID,18.5391,VALID,235,VALID,0,
2007-03-06, 02:58:00,VALID,916.795,VALID,0,VALID,100,VALID,0,VALID,18.4707,VALID,235,VALID,0.0977515,
2007-03-06, 02:59:00,VALID,916.787,VALID,0,VALID,100,VALID,0,VALID,18.4286,VALID,235,VALID,0.16915,
2007-03-06, 03:00:00,VALID,916.788,VALID,0,VALID,100,VALID,0,VALID,18.3635,VALID,260,VALID,0.386161,
2007-03-06, 03:01:00,VALID,916.786,VALID,0,VALID,100,VALID,0,VALID,18.2697,VALID,358,VALID,0.544207,
2007-03-06, 03:02:00,VALID,916.785,VALID,0,VALID,100,VALID,0.0169808,VALID,18.1817,VALID,3,VALID,0.7625,
2007-03-06, 03:03:00,VALID,916.783,VALID,0,VALID,100,VALID,0,VALID,18.1726,VALID,7,VALID,0.851563,
2007-03-06, 03:04:00,VALID,916.767,VALID,0,VALID,100,VALID,0,VALID,18.2537,VALID,10,VALID,0.929878,
2007-03-06, 03:05:00,VALID,916.777,VALID,0,VALID,100,VALID,0,VALID,18.3352,VALID,13,VALID,0.837326,
2007-03-06, 03:06:00,VALID,916.766,VALID,0,VALID,100,VALID,0,VALID,18.3899,VALID,13,VALID,0.894717,
2007-03-06, 03:07:00,VALID,916.772,VALID,0,VALID,100,VALID,-0.0169808,VALID,18.4251,VALID,13,VALID,0.761102,
2007-03-06, 03:08:00,VALID,916.805,VALID,0,VALID,100,VALID,0.0169808,VALID,18.4511,VALID,13,VALID,0.613376,
2007-03-06, 03:09:00,VALID,916.824,VALID,0,VALID,100,VALID,0,VALID,18.4443,VALID,13,VALID,0.258984,
2007-03-06, 03:10:00,VALID,916.849,VALID,0,VALID,100,VALID,0.0169808,VALID,18.4511,VALID,13,VALID,0.133371,
2007-03-06, 03:11:00,VALID,916.866,VALID,0,VALID,100,VALID,0.0169808,VALID,18.5514,VALID,7,VALID,0.320898,
2007-03-06, 03:12:00,VALID,916.87,VALID,0,VALID,100,VALID,-0.0169808,VALID,18.6846,VALID,356,VALID,0.519259,
2007-03-06, 03:13:00,VALID,916.883,VALID,0,VALID,100,VALID,0,VALID,18.7791,VALID,342,VALID,0.493641,
2007-03-06, 03:14:00,VALID,916.889,VALID,0,VALID,100,VALID,0,VALID,18.8564,VALID,357,VALID,0.428735,
2007-03-06, 03:15:00,VALID,916.893,VALID,0,VALID,100,VALID,0,VALID,18.7978,VALID,16,VALID,0.087358,
2007-03-06, 03:16:00,VALID,916.901,VALID,0,VALID,100,VALID,0,VALID,18.7596,VALID,16,VALID,0.0132631,
2007-03-06, 03:17:00,VALID,916.884,VALID,0,VALID,100,VALID,0,VALID,18.7534,VALID,16,VALID,0,
2007-03-06, 03:18:00,VALID,916.869,VALID,0,VALID,100,VALID,0.0169808,VALID,18.7427,VALID,16,VALID,0,
2007-03-06, 03:19:00,VALID,916.838,VALID,0,VALID,100,VALID,0,VALID,18.7427,VALID,16,VALID,0,
2007-03-06, 03:20:00,VALID,916.797,VALID,0,VALID,100,VALID,0.0169808,VALID,18.7267,VALID,16,VALID,0,
2007-03-06, 03:21:00,VALID,916.787,VALID,0,VALID,100,VALID,0.0169808,VALID,18.6943,VALID,16,VALID,0,
2007-03-06, 03:22:00,VALID,916.767,VALID,0,VALID,100,VALID,0.0509425,VALID,18.6846,VALID,16,VALID,0,
2007-03-06, 03:23:00,VALID,916.759,VALID,0,VALID,100,VALID,0,VALID,18.6746,VALID,16,VALID,0,
2007-03-06, 03:24:00,VALID,916.735,VALID,0,VALID,100,VALID,0.0169808,VALID,18.6683,VALID,16,VALID,0,
2007-03-06, 03:25:00,VALID,916.729,VALID,0,VALID,100,VALID,0,VALID,18.6846,VALID,16,VALID,0.0109012,
2007-03-06, 03:26:00,VALID,916.72,VALID,0,VALID,100,VALID,0.0169808,VALID,18.6329,VALID,16,VALID,0.141513,
2007-03-06, 03:27:00,VALID,916.715,VALID,0,VALID,100,VALID,0.0169808,VALID,18.597,VALID,16,VALID,0.224848,
2007-03-06, 03:28:00,VALID,916.695,VALID,0,VALID,100,VALID,-0.0509425,VALID,18.6334,VALID,325,VALID,0.38151,
2007-03-06, 03:29:00,VALID,916.681,VALID,0,VALID,100,VALID,-0.101885,VALID,18.7219,VALID,284,VALID,0.630327,
2007-03-06, 03:30:00,VALID,916.657,VALID,0,VALID,100,VALID,-0.118866,VALID,18.796,VALID,276,VALID,0.694973,
2007-03-06, 03:31:00,VALID,916.625,VALID,0,VALID,100,VALID,-0.101885,VALID,18.8187,VALID,275,VALID,0.41369,
2007-03-06, 03:32:00,VALID,916.618,VALID,0,VALID,100,VALID,-0.101885,VALID,18.819,VALID,275,VALID,0.200581,
2007-03-06, 03:33:00,VALID,916.607,VALID,0,VALID,100,VALID,-0.101885,VALID,18.806,VALID,275,VALID,0.140092,
2007-03-06, 03:34:00,VALID,916.571,VALID,0,VALID,100,VALID,-0.0849042,VALID,18.803,VALID,275,VALID,0.169876,
2007-03-06, 03:35:00,VALID,916.541,VALID,0,VALID,100,VALID,-0.0849042,VALID,18.774,VALID,275,VALID,0.0987043,
2007-03-06, 03:36:00,VALID,916.551,VALID,0,VALID,100,VALID,-0.0849042,VALID,18.7219,VALID,284,VALID,0.200591,
2007-03-06, 03:37:00,VALID,916.545,VALID,0,VALID,100,VALID,-0.0849042,VALID,18.6792,VALID,286,VALID,0.0302973,
2007-03-06, 03:38:00,VALID,916.554,VALID,0,VALID,100,VALID,-0.101885,VALID,18.7314,VALID,286,VALID,0.17351,
2007-03-06, 03:39:00,VALID,916.548,VALID,0,VALID,100,VALID,-0.101885,VALID,18.7765,VALID,284,VALID,0.320313,
2007-03-06, 03:40:00,VALID,916.54,VALID,0,VALID,100,VALID,-0.0679233,VALID,18.8027,VALID,282,VALID,0.0208939,
2007-03-06, 03:41:00,VALID,916.56,VALID,0,VALID,100,VALID,-0.0849042,VALID,18.7573,VALID,282,VALID,0,
2007-03-06, 03:42:00,VALID,916.575,VALID,0,VALID,100,VALID,-0.0849042,VALID,18.7119,VALID,282,VALID,0.0594952,
2007-03-06, 03:43:00,VALID,916.577,VALID,0,VALID,100,VALID,-0.0849042,VALID,18.6732,VALID,282,VALID,0.1,
2007-03-06, 03:44:00,VALID,916.583,VALID,0,VALID,100,VALID,-0.101885,VALID,18.6737,VALID,282,VALID,0.0708705,
2007-03-06, 03:45:00,VALID,916.579,VALID,0,VALID,100,VALID,-0.118866,VALID,18.7084,VALID,282,VALID,0.0689236,
2007-03-06, 03:46:00,VALID,916.562,VALID,0,VALID,100,VALID,-0.0679233,VALID,18.7571,VALID,282,VALID,0.164608,
2007-03-06, 03:47:00,VALID,916.55,VALID,0,VALID,100,VALID,-0.101885,VALID,18.7835,VALID,282,VALID,0.185742,